weather.gov     
National Weather Service

Regional Weather Roundup
NWS Homepage
This page is being discontinued on March 12, 2014.
The same data is available at this site. Please update your bookmarks.
Thank you, and we apologize for the inconvenience.
Please send an email to SR-SRH.Webmaster@noaa.gov with any concerns.


Current Version
Previous Version:    01  02  03  04  05  06  07  08  09  10  11  12  13  14  15  16  17  18  19  20  21  22  23  24  25  26  27  28  29  30  
   31  32  33  34  35  36  37  38  39  40  41  42  43  44  45  46  47  48  49  50  51  52  53  54  
[Printable]
948
ASUS41 KCTP 300410
RWRCTP

REGIONAL WEATHER ROUNDUP
NATIONAL WEATHER SERVICE STATE COLLEGE PA
1200 AM EDT SAT AUG 30 2014

Note: "fair" indicates few or no clouds below 12,000 feet with no
significant weather and/or obstructions to visibility.

* = STATION THAT DOES NOT REPORT PRECIPITATION /E.G. RAIN...SNOW...ETC/
    THUNDER OR FOG.

PAZ002>004-007>009-013>016-020>023-029>032-300500-
WESTERN PENNSYLVANIA

CITY           SKY/WX    TMP DP  RH WIND       PRES   REMARKS
ERIE           CLEAR     66  53  63 S9        30.09S
MEADVILLE      CLEAR     66  53  63 VRB3      30.12F
FRANKLIN*      CLEAR     61  54  77 SE8       30.15F
NEW CASTLE     FAIR      59  58  96 CALM      30.13S
BEAVER COUNTY  NOT AVBL
BUTLER*        CLEAR     64  55  72 E9        30.15R
PITTSBURGH INT CLEAR     64  57  78 CALM      30.13R
PITTSBURGH     CLEAR     67  56  67 SE6       30.13R
INDIANA*       PTCLDY    68  55  64 S8        30.19F
LATROBE        CLEAR     70  57  64 S5        30.15R
WASHINGTON CO* CLEAR     55  54  94 CALM      30.13S
$$

PAZ004>006-010>012-017>019-024>028-033>037-041-042-045-046-049>053-300500-
CENTRAL PENNSYLVANIA

CITY           SKY/WX    TMP DP  RH WIND       PRES   REMARKS
BRADFORD       CLEAR     55  51  86 SE7       30.18F
DUBOIS         CLEAR     61  52  72 SE9       30.17F
CLEARFIELD     CLEAR     56  53  90 N5        30.21R
JOHNSTOWN      CLEAR     62  53  72 SE10      30.21S
ALTOONA        CLEAR     64  55  72 S6        30.22R
STATE COLLEGE  PTCLDY    60  53  76 CALM      30.21S
WILLIAMSPORT   PTCLDY    59  54  83 CALM      30.19S
SELINSGROVE    CLEAR     54  52  93 CALM      30.22R
FT INDIANTOWN  CLEAR     56  56 100 NE2       30.23S
CAPITAL CITY   CLEAR     64  54  69 S7        30.22R
HARRISBURG     PTCLDY    65  58  78 SE6       30.21S
YORK           CLEAR     65  55  70 S5        30.22S
$$

PAZ038>040-043-044-047-048-054-055-060>062-067>071-300500-
EASTERN PENNSYLVANIA

CITY           SKY/WX    TMP DP  RH WIND       PRES   REMARKS
SCRANTON       CLEAR     64  53  67 VRB7      30.22S
MOUNT POCONO   PTCLDY    58  54  86 S7        30.27S
ALLENTOWN      CLEAR     67  56  67 S5        30.24S
QUAKERTOWN*    CLEAR     59  57  94 CALM      30.26S
READING        CLEAR     65  55  70 S7        30.23R
LANCASTER      CLEAR     58  54  86 E5        30.23S
COATESVILLE    CLEAR     59  59 100 CALM      30.26S
POTTSTOWN      CLEAR     64  58  80 CALM      30.26S
BLUE BELL      CLEAR     59  55  88 CALM      30.25R
DOYLESTOWN     MOCLDY    59  57  93 CALM      30.25R
WILLOW GROVE   NOT AVBL
NORTH PHILA    CLEAR     64  55  72 CALM      30.27R
PHILADELPHIA   PTCLDY    68  59  73 S5        30.25R
$$




U.S. Dept. of Commerce
NOAA National Weather Service
1325 East West Highway
Silver Spring, MD 20910
E-mail: w-nws.webmaster@noaa.gov
Page last modified: May 16, 2007
NATIONAL WEATHER SERVICE: for Safety, for Work, for Fun - FOR LIFE